Regional Weather Roundup
Issued by NWS Grand Forks, ND

Home | Current Version | Previous Version | Graphics & Text | Print | Product List | Glossary On
Versions: 1 2 3 4 5 6 7 8 9 10 11 12 13 14 15 16 17 18 19 20 21 22 23 24 25 26 27 28 29 30 31 32 33 34 35 36 37 38 39 40 41 42 43 44 45 46 47 48 49 50
000
ASUS43 KFGF 242231
RWRFGF
PRAIRIE TO PINES  WEATHER ROUNDUP
NATIONAL WEATHER SERVICE EASTERN NORTH DAKOTA/GRAND FORKS ND
500 PM CDT THU JUL 24 2014

 **SATELLITE DATA USED TO AUGMENT SKY COVER AT AUTOMATED STATIONS**
 *****  WEATHER ACROSS EASTERN NORTH DAKOTA  *****

CITY           SKY/WX    TMP DP  RH WIND       PRES   REMARKS
GRAND FORKS    MOSUNNY   77  60  55 SE10G24   29.88F
GRAND FRKS AFB MOSUNNY   78  62  57 SE16      29.88F
GRAND FRKS NWS   N/A     75 N/A N/A S15         N/A
DEVILS LAKE    PTSUNNY   75  61  60 S12       29.85R
FARGO          SUNNY     77  61  57 S17G25    29.86F
WAHPETON ARPT  CLEAR     73  59  60 S21G29    29.87S
$$

 ***** WEATHER ACROSS CENTRAL AND WESTERN NORTH DAKOTA  *****

CITY           SKY/WX    TMP DP  RH WIND       PRES   REMARKS
BISMARCK       CLOUDY    80  65  59 S13       29.82R
MINOT          CLOUDY    71  64  78 E20G29    29.65F
JAMESTOWN      CLOUDY    78  64  61 S21G26    29.82F
MINOT AFB      CLOUDY    73  66  78 E15       29.69F
GARRISON         N/A     70  67  90 E10       29.79F
WILLISTON      SUNNY     85  63  47 S9        29.71S
DICKINSON      MOSUNNY   81  68  64 E17       29.74F
HETTINGER      SUNNY     87  67  51 SE10      29.76S HX  90
$$

 *****  OTHER AIRPORT OBSERVATIONS IN OUR AREA  *****

CITY           SKY/WX    TMP DP  RH WIND       PRES   REMARKS
WALHALLA         N/A     75  66  73 SE13        N/A
GRAFTON AIRPOR FAIR      75  59  57 S16       29.88F
VALLEY CITY AR FAIR      75  64  69 S17G24    29.85S
CANDO          CLOUDY    73  63  68 S10       29.89R
CAVALIER APRT  FAIR      75  63  64 S12       29.88S
GWINNER        CLOUDY    75  64  69 S16G22    29.85F
SHEYENNE NWR     N/A     76  62  61 S20       29.95S
ROLLA          CLOUDY    72  64  78 S13       29.89R
 ***** THE ABOVE OBSERVATIONS ARE NON NWS ARE NOT QUALITY
       CONTROLLED AND MAY MIS-REPORT RAIN FOR SNOW...
$$

  *****  WEATHER ACROSS NORTHERN MINNESOTA  *****

CITY           SKY/WX    TMP DP  RH WIND       PRES   REMARKS
FLAG ISLAND    PTSUNNY   72  55  56 CALM      29.93S
WARROAD        LGT RAIN  70  63  78 CALM      29.95R
ROSEAU         DRIZZLE   72  64  78 S5        29.94S
HALLOCK        CLOUDY    73  64  73 E6        29.89S
THF RVR FALLS  PTSUNNY   75  61  60 S9        29.91F
BAUDETTE       CLOUDY    74  60  61 S7        29.94S
WASKISH        CLOUDY    72  61  68 CALM      29.94S
CROOKSTON      MOSUNNY   79  59  50 S13       29.91S
$$
  *****  WEATHER ACROSS CENTRAL AND WEST MINNESOTA  *****

CITY           SKY/WX    TMP DP  RH WIND       PRES   REMARKS
FOSSTON        MOSUNNY   75  57  53 S8        29.93S
BEMIDJI        PTSUNNY   75  56  50 S10       29.93R
PARK RAPIDS    CLOUDY    76  54  46 S15       29.92R
ELBOW LAKE     FAIR      73  63  72 S21G31    29.89S
WADENA         CLOUDY    72  57  60 SW5       29.91F
DETROIT LAKES  MOSUNNY   72  59  64 SE3       29.93S
MOORHEAD       SUNNY     77  64  65 S14G20    29.88F
FERGUS FALLS   MOSUNNY   75  59  57 S18G28    29.88F
MORRIS MN      MOSUNNY   72  63  73 S25G32    29.88F
STAPLES        CLOUDY    75  55  50 S10G16    29.92R
$$
  *****  WEATHER ELSEWHERE ACROSS MINNESOTA  *****

CITY           SKY/WX    TMP DP  RH WIND       PRES   REMARKS
DULUTH         PTSUNNY   74  56  53 S9        29.97F
INTRNTL FALLS  MOSUNNY   73  55  53 CALM      29.93F
ELY            MOSUNNY   75  52  43 SW6       29.95F
CLOQUET        CLOUDY    73  54  49 S6        29.96F
WHEATON        MOSUNNY   70  61  73 S22G31    29.87F
BRAINERD       CLOUDY    74  58  57 VRB7G16   29.91F
HIBBING        CLOUDY    75  53  46 VRB6      29.95F
ALEXANDRIA     CLOUDY    72  62  71 S14G25    29.92R
SAINT CLOUD    CLOUDY    75  58  55 SE15G28   29.79F
MINNEAPOLIS    CLOUDY    78  58  49 SE14      29.92F
$$

  *****  WEATHER ACROSS SOUTH DAKOTA  *****

CITY           SKY/WX    TMP DP  RH WIND       PRES   REMARKS
SIOUX FALLS    CLOUDY    71  61  70 SE24G38   29.93F
BROOKINGS      NOT AVBL
WATERTOWN      MOSUNNY   72  61  68 S20G31    29.88F
HURON          PTSUNNY   75  63  66 SE22G37   29.83F
SISSETON         N/A     72  63  73 S25G36    29.85F
ABERDEEN       SUNNY     79  61  53 SE24G33   29.80F
MITCHELL       MOSUNNY   78  66  66 SE29G38   29.87F
PIERRE         SUNNY     98  69  38 SE21G30   29.65F HX 104
MOBRIDGE       SUNNY     84  68  58 SE23G31   29.71F
RAPID CITY     PTSUNNY   89  71  55 W5        29.76F HX  95
$$

  *****  SOME WEATHER IN NEARBY STATES *****

CITY           SKY/WX    TMP DP  RH WIND       PRES   REMARKS
GLASGOW MT     SUNNY     92  59  33 VRB5      29.64F HX  91
GREAT FALLS MT SUNNY     73  29  19 SW29G39   29.94R
CHEYENNE WY    CLOUDY    84  47  27 MISG      30.15S
SCOTTSBLUFF NE PTSUNNY  102  50  17 W21G32    29.87F HX  99
OMAHA NE       PTSUNNY   83  61  47 SE22G32   29.96F
DES MOINES IA  CLOUDY    75  61  61 VRB7      30.02F
DAVENPORT IA   MOSUNNY   78  53  41 E3        30.09S
CHICAGO IL     MOSUNNY   74  43  32 NE10      30.09F
EAU CLAIRE WI  PTSUNNY   79  53  40 SW7       30.04F
LA CROSSE WI   PTSUNNY   79  56  45 S7        30.05F
$$

  *****  SOME NATIONAL WEATHER *****

CITY           SKY/WX    TMP DP  RH WIND       PRES   REMARKS
LA GUARDIA NY  MOSUNNY   80  56  43 N10       29.82F
RALEIGH NC     PTSUNNY   84  72  65 SE6       29.82F THUNDER
ATLANTA GA     TSTM      72  68  88 W5        29.96R FOG
NEW ORLEANS LA PTSUNNY   88  75  65 S6        29.94F HX  97
OKLAHOMA CITY  MOSUNNY   93  71  48 S8        30.00F HX 100
ALBUQUERQUE NM MOSUNNY   91  41  17 SW10      30.21F
SALT LAKE CITY MOSUNNY   92  36  14 NW15G24   30.00F
LOS ANGELES CA MOSUNNY   78  63  59 W15       29.81F
BOISE ID       SUNNY     74  32  21 NW12G17   30.14F
SEATTLE WA     PTSUNNY   64  52  63 SW16      30.21S
$$

*** WEATHER ACROSS MANITOBA...SASKATCHEWAN AND ONTARIO ***
                ***ONTARIO***

CITY           SKY/WX    TMP DP  RH WIND       PRES   REMARKS
GERALDTON      PTSUNNY   75  50  41 W9        29.92F
THUNDER BAY    MOSUNNY   75  52  43 S20       29.95F
SIOUX LOOKOUT  MOSUNNY   75  50  41 SW8       29.94F
TORONTO        MOSUNNY   73  48  40 N8G17     30.01F
BIG TROUT LK   MOSUNNY   75  50  41 NW9G17    29.79F
PICKLE LAKE    PTSUNNY   79  43  27 W10       29.88F
DRYDEN         SUNNY     75  50  41 SW5       29.94F
KENORA         PTSUNNY   73  54  49 S7        29.95S
$$
                *** MANITOBA***

CITY           SKY/WX    TMP DP  RH WIND       PRES   REMARKS
BRANDON        PTSUNNY   73  64  73 S12       29.86F
DAUPHIN        SUNNY     73  64  73 SE14G22   29.83F
ISLAND LAKE    MOSUNNY   81  50  34 W5        29.87F
PILOT MOUND      N/A     73  63  68 SE14        N/A
THE PAS        CLOUDY    77  55  47 SE10      29.81F
THOMPSON       MOSUNNY   84  52  32 SW3       29.83F
WINNIPEG       CLOUDY    75  61  60 SE8       29.90F
LYNN LAKE      SUNNY     81  48  32 S9        29.84F
CHURCHILL      MOSUNNY   61  50  67 NE10      29.91
GILLAM         CLOUDY    81  54  39 W3        29.82F
$$
                ***SASKATCHEWAN***

CITY           SKY/WX    TMP DP  RH WIND       PRES   REMARKS
ESTEVAN        PTSUNNY   79  66  65 E14       29.74F
KINDERSLEY     TSTM      57  55  94 S9        29.80R
LLOYDMINSTER   PTSUNNY   59  54  82 S3        29.64F
PRINCE ALBERT  PTSUNNY   72  64  78 E9        29.69F
REGINA         MOSUNNY   84  63  48 SE8G17    29.69F
YORKTON        PTSUNNY   75  61  60 SE13      29.78F
N. BATTLEFORD  LGT RAIN  64  59  82 W9        29.68F
LA RONGE       PTSUNNY   77  59  53 E12       29.74F
SASKATOON      PTSUNNY   75  70  83 E8        29.68F
SWIFT CURRENT  TSTM      57  54  88 W26G37    29.77R FOG
$$
NOTE: THESE ARE AUTOMATED STATIONS WITH LIMITED QUALITY CONTROL
      "FAIR" INDICATES FEW OR NO CLOUDS BELOW 12,000 FEET WITH NO
      SIGNIFICANT WEATHER AND/OR OBSTRUCTIONS TO VISIBILITY.
      SKY/WX - SKY CONDITION AND SIGNIFICANT WEATHER.
      TMP - AIR TEMPERATURE.    DP   - DEWPOINT TEMPERATURE.
      RH  - RELATIVE HUMIDITY.  PRES - PRESSURE.
      HX  - HEAT INDEX.         WCI  - WIND CHILL INDEX.
$



USA.gov is the U.S. government's official web portal to all federal, state and local government web resources and services.